Location: Miles
(41.4492°N, 81.6087°W)
Time: 04:53:15
(UTC+00:00)

Courier 1B - Pass Details

Date: 18 September 2024
Orbit: 962 x 1208 km, 28.3° (Epoch: 06 October)

Event Time Altitude Azimuth Distance (km) Brightness Sun altitude
Rises 21:24:19 0° 255° (WSW) 3,903 12.2 22.3°
Reaches altitude 10° 21:27:31 10° 243° (WSW) 2,985 12.1 21.7°
Maximum altitude 21:33:23 26° 190° (S) 2,094 9.8 20.7°
Drops below altitude 10° 21:39:30 10° 138° (SE) 3,104 9.9 19.6°
Sets 21:42:53 0° 126° (SE) 4,087 10.4 19.0°
